[[{"header":{"parameterUnit":"m.s-1","parameterCategory":1,"la1":30.2991,"la2":30.254,"lo1":-89.0895,"lo2":-89.0444,"dy":0.0017,"dx":0.0017,"nx":28,"ny":28,"refTime":"2024-12-26T09:00:00:Z","depth":0,"parameterNumber":2,"parameterNumberName":"U-component_of_WINDS"},"data":[0,0,0,0,0,0,0,0,0,0,0,0,0,0,0,0,0,0,0,0,0,0,0,0,0,0,0,0,0,0,0,0,0,0,0,0,0,0,0,0,0,0,0,0,0,0,0,0,0,0,0,0,0,0,0,0,0,0,-4.6653,-4.6653,0,-4.6655,-4.6655,-4.6655,-4.6501,-4.6496,-4.6492,-4.6489,-4.6496,-4.65,-4.6504,0,0,0,0,0,0,0,0,0,0,0,0,0,-4.6519,-4.6523,-4.6653,-4.6653,-4.6653,-4.6655,-4.6655,-4.6655,-4.6501,-4.6496,-4.6491,-4.6487,-4.6495,-4.65,-4.6505,0,0,0,0,0,0,0,0,0,0,0,0,0,-4.6555,-4.6524,-4.6653,-4.6576,-4.6569,-4.6655,-4.6655,-4.6655,-4.6502,-4.6496,-4.649,-4.6484,-4.6493,-4.6499,-4.6505,-4.6666,0,0,-4.6524,-4.6526,0,0,0,0,0,0,0,0,-4.6553,-4.656,-4.6587,-4.6582,-4.6574,-4.6571,-4.6611,-4.6659,-4.6504,-4.6528,-4.6488,-4.6481,-4.6527,-4.653,-4.6544,-4.6666,-4.6667,-4.6524,-4.6528,-4.6531,-4.6532,0,0,0,0,0,0,0,-4.6551,-4.6559,-4.6654,-4.6588,-4.658,-4.6543,-4.6541,-4.6619,-4.6562,-4.6525,-4.6514,-4.6516,-4.6522,-4.6538,-4.6543,-4.6667,-4.6524,-4.653,-4.6533,-4.6536,-4.6922,-4.6928,0,0,0,0,0,0,-4.6559,-4.6558,-4.6654,-4.6654,-4.6548,-4.6551,-4.6549,-4.6578,-4.6561,-4.6552,-4.6522,-4.6509,-4.6531,-4.6536,-4.6542,-4.673,-4.6531,-4.6536,-4.654,-4.6915,-4.6923,-4.6931,0,0,0,0,0,0,-4.6556,-4.6568,-4.6654,-4.6603,-4.6611,-4.6559,-4.6594,-4.6582,-4.6598,-4.6558,-4.6547,-4.6549,-4.6526,-4.6534,-4.6636,-4.6728,-4.6539,-4.6544,-4.6908,-4.6918,-4.6927,-4.7107,0,0,0,0,0,0,-4.6553,-4.6569,-4.6628,-4.6605,-4.6614,-4.6747,-4.66,-4.6586,-4.6608,-4.6592,-4.658,-4.6572,-4.6522,-4.6628,-4.6642,-4.6733,-4.6549,-4.6899,-4.6912,-4.6924,-4.7092,-4.7121,-4.7146,0,0,0,0,0,-4.6549,-4.668,-4.6632,-4.6644,-4.6687,-4.6752,-4.6757,-4.6695,-4.6616,-4.6676,-4.665,-4.6573,-4.6715,-4.664,-4.6654,-4.6749,-4.6893,-4.6909,-4.6923,-4.708,-4.7116,-4.7146,0,0,0,0,0,0,-4.6716,-4.6675,-4.6622,-4.6749,-4.6755,-4.6726,-4.68,-4.6735,-4.6764,-4.6748,-4.6671,-4.667,-4.6785,-4.6776,-4.6693,-4.6903,-4.679,-4.6809,-4.6905,-4.6938,-4.6965,-4.6966,-4.6554,0,0,0,0,0,-4.6768,-4.6822,-4.6784,-4.69,-4.6905,-4.6853,-4.6878,-4.6829,-4.6833,-4.6836,-4.6817,-4.6826,-4.6872,-4.6904,-4.6945,-4.7089,-4.7086,-4.7162,-4.7189,-4.7211,-4.7229,-4.7306,-4.734,-4.698,-4.698,-4.6979,0,0,-4.6875,-4.6859,-4.6899,-4.6933,-4.6932,-4.6992,-4.6856,-4.6925,-4.6969,-4.6847,-4.6942,-4.6929,-4.6933,-4.7057,-4.7111,-4.7054,-4.7327,-4.723,-4.7248,-4.7254,-4.7325,-4.7359,-4.7389,-4.699,-4.6988,-4.6986,0,0,-4.7102,-4.7095,-4.7191,-4.7192,-4.7191,-4.7155,-4.7179,-4.7159,-4.7145,-4.7239,-4.7149,-4.7201,-4.7282,-4.7289,-4.7303,-4.7532,-4.7462,-4.7547,-4.769,-4.7766,-4.7794,-4.7819,-4.7902,-4.7933,-4.7565,-4.7565,-4.7565,0,-4.7236,-4.7321,-4.7249,-4.7324,-4.7342,-4.7232,-4.733,-4.7335,-4.7349,-4.7365,-4.7299,-4.7399,-4.7394,-4.7519,-4.7575,-4.7589,-4.7615,-4.7549,-4.7795,-4.782,-4.7842,-4.792,-4.7952,-4.7575,-4.7574,-4.7573,-4.7572,0,-4.7487,-4.7547,-4.7625,-4.7639,-4.7666,-4.7752,-4.7694,-4.773,-4.7679,-4.7651,-4.7748,-4.7738,-4.7775,-4.78,-4.7752,-4.7919,-4.7884,-4.7808,-4.7694,-4.7888,-4.796,-4.799,-4.759,-4.7587,-4.7584,-4.7581,0,0,-4.7821,-4.7793,-4.7823,-4.7828,-4.7819,-4.7865,-4.7947,-4.7981,-4.8014,-4.8027,-4.8094,-4.8165,-4.8095,-4.8112,-4.8063,-4.8129,-4.8313,-4.8045,-4.8044,-4.8097,-4.8498,-4.8557,-4.8593,-4.8266,-4.8271,-4.8275,-4.8499,0,-4.8041,-4.8177,-4.8115,-4.8259,-4.8314,-4.821,-4.8281,-4.8285,-4.826,-4.8305,-4.8277,-4.833,-4.8232,-4.8241,-4.8302,-4.8278,-4.8393,-4.826,-4.833,-4.8333,-4.8334,-4.863,-4.8692,-4.8903,-4.8526,-4.8531,-4.8534,0,-4.8317,-4.834,-4.849,-4.8471,-4.8491,-4.8556,-4.8583,-4.8626,-4.8628,-4.8605,-4.8623,-4.8559,-4.8639,-4.8524,-4.8634,-4.8545,-4.857,-4.8562,-4.8569,-4.8575,-4.8447,-4.8646,-4.8969,-4.9002,-4.8578,-4.8575,-4.8572,0,-4.8548,-4.8616,-4.8714,-4.8722,-4.8702,-4.875,-4.8744,-4.8739,-4.8764,-4.8788,-4.8803,-4.8837,-4.8856,-4.8884,-4.8831,-4.8751,-4.8949,-4.8829,-4.8935,-4.8936,-4.8983,-4.8981,-4.9316,-4.8996,-4.8995,-4.8995,-4.8994,0,-4.8802,-4.8898,-4.8818,-4.8879,-4.8983,-4.891,-4.9016,-4.8999,-4.8996,-4.9053,-4.8965,-4.902,-4.8946,-4.8995,-4.8954,-4.9052,-4.9061,-4.9046,-4.9035,-4.9055,-4.9058,-4.9072,-4.9057,-4.9003,-4.9001,-4.9,-4.8998,0,-4.9079,-4.9028,-4.9129,-4.9101,-4.9096,-4.9175,-4.9151,-4.9207,-4.9175,-4.9248,-4.9261,-4.9213,-4.9266,-4.9215,-4.9265,-4.9237,-4.937,-4.9336,-4.9369,-4.936,-4.9469,-4.9461,-4.9827,-4.9872,-4.9522,-4.9525,-4.9528,0,-4.9245,-4.9316,-4.9296,-4.9326,-4.9326,-4.9376,-4.9401,-4.9332,-4.9361,-4.9368,-4.9424,-4.9468,-4.9501,-4.959,-4.9561,-4.9599,-4.9567,-4.9692,-4.9572,-4.9591,-4.9571,-4.9568,-4.9575,-4.9718,-4.9722,-4.9725,-4.9728,0,-4.9547,-4.9518,-4.9555,-4.9585,-4.9616,-4.9636,-4.965,-4.968,-4.9609,-4.9647,-4.9699,-4.9724,-4.9774,-4.9821,-4.9849,-4.9845,-4.9777,-4.9766,-4.9792,-4.9815,-4.9832,-4.9826,-4.9438,-4.9758,-4.9755,-4.9753,-4.9751,-4.975,-4.9774,-4.9833,-4.9827,-4.9872,-4.9875,-4.9889,-4.994,-4.9915,-4.9956,-4.9991,-4.9947,-5.0012,-5.0012,-5.0044,-5.0047,-5.0098,-5.0045,-5.0083,-5.0093,-5.0104,-5.0121,-4.9823,-5.0103,-5.0102,-5.0101,-5.01,-5.0099,0,-5.0073,-5.0063,-5.0105,-5.0126,-5.0162,-5.0091,-5.0102,-5.0138,-5.0195,-5.02,-5.0233,-5.0293,-5.0338,-5.0311,-5.0349,-5.0395,-5.0365,-5.0408,-5.0405,-5.0405,-5.0165,-5.0139,-5.0432,-5.0432,-5.0432,-5.0432,-5.0432,-5.0432,-5.0232,-5.0328,-5.0299,-5.0395,-5.0385,-5.0446,-5.0459,-5.0473,-5.0476,-5.0547,-5.0582,-5.0564,-5.0557,-5.0594,-5.0632,-5.0623,-5.0642,-5.0697,-5.0678,-5.0455,-5.0422,-5.0391,-5.0366,-5.0702,-5.0702,-5.0913,-5.0915,-5.0917]},{"header":{"parameterUnit":"m.s-1","parameterCategory":1,"la1":30.2991,"la2":30.254,"lo1":-89.0895,"lo2":-89.0444,"dy":0.0017,"dx":0.0017,"nx":28,"ny":28,"refTime":"2024-12-26T09:00:00:Z","depth":0,"parameterNumber":3,"parameterNumberName":"V-component_of_WINDS"},"data":[0,0,0,0,0,0,0,0,0,0,0,0,0,0,0,0,0,0,0,0,0,0,0,0,0,0,0,0,0,0,0,0,0,0,0,0,0,0,0,0,0,0,0,0,0,0,0,0,0,0,0,0,0,0,0,0,0,0,-2.682,-2.682,0,-2.6835,-2.6835,-2.6835,-2.6798,-2.6797,-2.6795,-2.6794,-2.6809,-2.681,-2.6812,0,0,0,0,0,0,0,0,0,0,0,0,0,-2.6758,-2.6759,-2.682,-2.682,-2.6821,-2.6835,-2.6835,-2.6836,-2.6798,-2.6797,-2.6795,-2.6794,-2.6808,-2.681,-2.6812,0,0,0,0,0,0,0,0,0,0,0,0,0,-2.678,-2.6759,-2.682,-2.6804,-2.6802,-2.6835,-2.6835,-2.6836,-2.6798,-2.6797,-2.6795,-2.6793,-2.6808,-2.681,-2.6812,-2.6861,0,0,-2.6819,-2.682,0,0,0,0,0,0,0,0,-2.6779,-2.6782,-2.6806,-2.6805,-2.6803,-2.6813,-2.6818,-2.6844,-2.6799,-2.68,-2.6794,-2.6792,-2.6812,-2.6813,-2.682,-2.6862,-2.6863,-2.6819,-2.6821,-2.6821,-2.6822,0,0,0,0,0,0,0,-2.6777,-2.6781,-2.6826,-2.6806,-2.6805,-2.6795,-2.6796,-2.6823,-2.6815,-2.68,-2.6797,-2.6799,-2.6811,-2.6818,-2.682,-2.6863,-2.6819,-2.6821,-2.6822,-2.6823,-2.6945,-2.6947,0,0,0,0,0,0,-2.6778,-2.678,-2.6826,-2.6827,-2.6786,-2.6797,-2.6799,-2.6812,-2.6815,-2.6814,-2.6801,-2.6797,-2.6815,-2.6818,-2.682,-2.6878,-2.6821,-2.6824,-2.6825,-2.6943,-2.6945,-2.6947,0,0,0,0,0,0,-2.6777,-2.6782,-2.6825,-2.6803,-2.6807,-2.68,-2.6815,-2.6813,-2.682,-2.6816,-2.6814,-2.681,-2.6814,-2.6817,-2.6851,-2.6878,-2.6825,-2.6827,-2.6941,-2.6944,-2.6946,-2.6993,0,0,0,0,0,0,-2.6775,-2.6782,-2.6801,-2.6803,-2.6809,-2.6856,-2.6817,-2.6814,-2.6824,-2.682,-2.6824,-2.6823,-2.6813,-2.6848,-2.6854,-2.688,-2.6828,-2.6938,-2.6942,-2.6945,-2.6989,-2.6997,-2.7004,0,0,0,0,0,-2.6773,-2.6814,-2.6803,-2.6808,-2.6833,-2.6858,-2.6861,-2.6848,-2.6827,-2.6845,-2.6842,-2.6823,-2.6874,-2.6852,-2.6858,-2.6885,-2.6937,-2.6941,-2.6945,-2.6986,-2.6996,-2.7004,0,0,0,0,0,0,-2.6815,-2.6814,-2.6801,-2.6844,-2.6852,-2.6852,-2.6875,-2.6859,-2.6873,-2.6868,-2.6852,-2.6853,-2.689,-2.6891,-2.6866,-2.6932,-2.6901,-2.6907,-2.6931,-2.694,-2.6947,-2.6947,-2.683,0,0,0,0,0,-2.683,-2.6851,-2.6848,-2.6887,-2.6891,-2.6882,-2.6893,-2.6883,-2.6889,-2.6892,-2.6892,-2.6899,-2.6916,-2.6928,-2.6944,-2.6989,-2.6989,-2.7011,-2.7018,-2.7024,-2.7029,-2.7053,-2.7062,-2.6961,-2.6961,-2.6961,0,0,-2.686,-2.6862,-2.6876,-2.6895,-2.69,-2.6921,-2.6885,-2.691,-2.6926,-2.6896,-2.6928,-2.6928,-2.6934,-2.6974,-2.6991,-2.6976,-2.7057,-2.703,-2.7035,-2.7036,-2.7058,-2.7068,-2.7076,-2.6964,-2.6964,-2.6963,0,0,-2.6926,-2.6929,-2.6961,-2.6966,-2.6973,-2.6967,-2.6974,-2.6977,-2.6975,-2.7007,-2.6985,-2.7003,-2.7033,-2.7039,-2.7046,-2.7112,-2.7094,-2.7117,-2.7156,-2.7179,-2.7187,-2.7194,-2.7218,-2.7226,-2.7122,-2.7122,-2.7122,0,-2.6962,-2.6994,-2.698,-2.7006,-2.7014,-2.6988,-2.702,-2.7025,-2.7037,-2.7043,-2.7025,-2.7062,-2.7065,-2.7105,-2.7121,-2.7128,-2.7135,-2.7117,-2.7187,-2.7194,-2.7201,-2.7223,-2.7232,-2.7125,-2.7125,-2.7125,-2.7124,0,-2.7038,-2.7061,-2.7086,-2.7098,-2.7109,-2.7138,-2.7127,-2.714,-2.7128,-2.7124,-2.7156,-2.7158,-2.7173,-2.7182,-2.717,-2.722,-2.721,-2.719,-2.7159,-2.7213,-2.7234,-2.7242,-2.7129,-2.7128,-2.7127,-2.7127,0,0,-2.7133,-2.7135,-2.7145,-2.7149,-2.7154,-2.7171,-2.7198,-2.7213,-2.7224,-2.7233,-2.7255,-2.728,-2.7262,-2.7269,-2.7258,-2.7278,-2.733,-2.7256,-2.7256,-2.727,-2.7384,-2.74,-2.741,-2.7318,-2.732,-2.7321,-2.7384,0,-2.7198,-2.7245,-2.7231,-2.7278,-2.7298,-2.7272,-2.7296,-2.7301,-2.7297,-2.7313,-2.7308,-2.7327,-2.7301,-2.7305,-2.7324,-2.732,-2.7353,-2.7315,-2.7338,-2.7339,-2.7338,-2.7421,-2.7437,-2.7497,-2.7392,-2.7393,-2.7394,0,-2.728,-2.7292,-2.734,-2.7341,-2.7349,-2.737,-2.7382,-2.7398,-2.7403,-2.7398,-2.7406,-2.7391,-2.7416,-2.7384,-2.7419,-2.7394,-2.7402,-2.7402,-2.7404,-2.7406,-2.737,-2.7425,-2.7515,-2.7525,-2.7407,-2.7406,-2.7405,0,-2.7344,-2.7372,-2.7404,-2.7409,-2.741,-2.7426,-2.7427,-2.743,-2.7439,-2.745,-2.7455,-2.7469,-2.7476,-2.7486,-2.7474,-2.7452,-2.7511,-2.7478,-2.7508,-2.7508,-2.7522,-2.7522,-2.7615,-2.7527,-2.7527,-2.7527,-2.7527,0,-2.7418,-2.7449,-2.7433,-2.7453,-2.7486,-2.747,-2.7503,-2.7501,-2.7504,-2.7522,-2.7501,-2.7519,-2.7502,-2.7518,-2.7509,-2.7539,-2.7542,-2.7539,-2.7536,-2.7541,-2.7542,-2.7547,-2.7543,-2.7529,-2.7529,-2.7528,-2.7528,0,-2.7496,-2.7486,-2.752,-2.7518,-2.7518,-2.7543,-2.7541,-2.7559,-2.7553,-2.7577,-2.7581,-2.7572,-2.759,-2.7578,-2.7597,-2.759,-2.763,-2.7621,-2.7628,-2.7626,-2.7657,-2.7654,-2.7757,-2.777,-2.7673,-2.7674,-2.7675,0,-2.7545,-2.7567,-2.7568,-2.7578,-2.7581,-2.7599,-2.7608,-2.7593,-2.7603,-2.761,-2.7627,-2.7643,-2.7655,-2.7684,-2.7679,-2.7692,-2.7684,-2.7719,-2.7686,-2.769,-2.7685,-2.7684,-2.7686,-2.7726,-2.7728,-2.7728,-2.7729,0,-2.7631,-2.7625,-2.7639,-2.7652,-2.7663,-2.7673,-2.768,-2.769,-2.7674,-2.7687,-2.7705,-2.7714,-2.7732,-2.7748,-2.7759,-2.776,-2.7742,-2.7739,-2.7747,-2.7753,-2.7756,-2.7755,-2.7647,-2.7737,-2.7737,-2.7736,-2.7736,-2.7735,-2.7696,-2.7715,-2.7717,-2.7734,-2.7737,-2.7744,-2.7761,-2.7757,-2.7771,-2.7785,-2.7774,-2.7796,-2.7798,-2.7811,-2.7814,-2.783,-2.7816,-2.7827,-2.783,-2.7833,-2.7837,-2.7753,-2.7832,-2.7832,-2.7832,-2.7831,-2.7831,0,-2.7781,-2.7782,-2.7797,-2.7807,-2.782,-2.7801,-2.7808,-2.782,-2.7839,-2.7843,-2.7855,-2.7875,-2.789,-2.7885,-2.7899,-2.7912,-2.7904,-2.7916,-2.7915,-2.7916,-2.7849,-2.7841,-2.7922,-2.7922,-2.7922,-2.7922,-2.7922,-2.7922,-2.7828,-2.7858,-2.7852,-2.7884,-2.7883,-2.7904,-2.7909,-2.7915,-2.7919,-2.7942,-2.7954,-2.7951,-2.7951,-2.7964,-2.7977,-2.7975,-2.7981,-2.7996,-2.7991,-2.7929,-2.792,-2.7912,-2.7904,-2.7997,-2.7997,-2.8056,-2.8057,-2.8057]}]]